Flag for Marshall Islands Weather past 2 weeks in Majuro, Marshall Islands

Now
82 °F

Mostly cloudy.


Feels Like: 89 °F
Forecast: 82 / 86 °F
Wind: 7 mph from Southwest

Location: Majuro Atoll

Current Time: Sep 3, 2015 at 2:59:37 AM

Latest Report: Sep 3, 2015 at 1:52 AM


Visibility: 15 mi

Pressure: 29.85 "Hg

Humidity: 85%

Dew point: 77 °F

Location of MajuroLocation

Historic Weather in Majuro — Graph

°F

Majuro temperature yesterday

Maximum temperature yesterday: 87 °F (at 11:51 AM)
Minimum temperature yesterday: 82 °F (at 8:51 PM)
Average temperature yesterday: 84 °F

Past Weeks' High & Low Weather Summary

 TemperatureHumidityPressure
High88 °F (Aug 28, 12:54 PM)94% (Aug 21, 6:54 PM)29.92 "Hg (Aug 21, 6:54 PM)
Low77 °F (Aug 23, 2:57 AM)72% (Aug 19, 3:50 PM)29.72 "Hg (Aug 27, 2:55 PM)
Average83 °F83%29.80 "Hg
* Reported Aug 19 12:54 AM — Sep 3 12:52 AM, Majuro, Weather by CustomWeather, © 2015

Note: Actual official high and low records may vary slightly from our data, if they occured in-between our weather recording intervals... More about our weather records

Advertising

Majuro weather history for previous 24 hours

 ConditionsComfort  
Time TempWeatherWind HumidityBarometerVisibility
12:52 AM
Thu, Sep 3
82 °FPassing clouds.8 mph85%29.86 "Hg15 mi
11:55 PM
Wed, Sep 2
82 °FPassing clouds.9 mph84%29.88 "Hg15 mi
10:50 PM82 °FPartly cloudy.10 mph83%29.90 "Hg15 mi
9:51 PM82 °FOvercast.12 mph83%29.92 "Hg15 mi
8:51 PM82 °FOvercast.18 mph86%29.90 "Hg15 mi
7:52 PM83 °FOvercast.18 mph84%29.90 "Hg15 mi
6:52 PM83 °FCloudy.22 mph84%29.88 "Hg15 mi
5:51 PM83 °FCloudy.20 mph83%29.86 "Hg15 mi
4:50 PM83 °FCloudy.22 mph84%29.85 "Hg15 mi
3:51 PM85 °FBroken clouds.16 mph77%29.84 "Hg15 mi
2:50 PM86 °FBroken clouds.13 mph76%29.85 "Hg15 mi
1:51 PM87 °FScattered clouds.12 mph76%29.85 "Hg15 mi
12:53 PM87 °FBroken clouds.12 mph75%29.88 "Hg15 mi
11:51 AM87 °FBroken clouds.13 mph75%29.89 "Hg15 mi
10:53 AM87 °FMore clouds than sun.12 mph73%29.90 "Hg15 mi
8:55 AM85 °FCloudy.12 mph78%29.91 "Hg15 mi
7:50 AM84 °FCloudy.10 mph79%29.88 "Hg15 mi
6:50 AM83 °FOvercast.10 mph82%29.85 "Hg15 mi
5:50 AM83 °FOvercast.9 mph81%29.84 "Hg15 mi
4:52 AM83 °FOvercast.9 mph83%29.83 "Hg15 mi
3:55 AM83 °FOvercast.10 mph82%29.82 "Hg15 mi
2:51 AM83 °FOvercast.12 mph82%29.83 "Hg15 mi
Weather by CustomWeather, © 2015

See weather overviewHow to use our weather pages